BAW643 LGKR-EGLL

Flight info

Callsign BAW643
Flight time N/A
Altitude 36000
Route OLGAT2F OLGAT L53 OKIMO DCT AIOSA DCT IPKIS DCT ROTAR DCT SAFFA DCT ELMUR DCT RIPUS DCT DITON DCT HOC DCT LUL DCT RLP DCT ROTSI DCT KOTUN DCT NINAL DCT ABNUR DCT DIMAL DCT ALESO ALESO1H
Aircraft A21N/M-SDE3FGIJ1LRWXYZ/SB1G1

Departure

Time N/A
Airport Corfu Ioannis Kapodistrias International Airport (LGKR)

Arrival

Time 2026-05-07 21:20
Airport London Heathrow Airport (EGLL)
Time Latitude Longitude Altitude Speed Heading
2026-05-07 21:06 51.28635 0.10359 9590 ft 292 kts 315°
2026-05-07 21:07 51.30090 0.08114 9243 ft 289 kts 315°
2026-05-07 21:07 51.31533 0.05886 8881 ft 287 kts 315°
2026-05-07 21:07 51.32955 0.03684 8543 ft 283 kts 315°
2026-05-07 21:07 51.34260 0.01358 8170 ft 280 kts 301°
2026-05-07 21:08 51.34913 -0.01529 7771 ft 277 kts 278°
2026-05-07 21:08 51.35061 -0.04595 7385 ft 276 kts 272°
2026-05-07 21:08 51.35121 -0.07664 7135 ft 276 kts 271°
2026-05-07 21:08 51.35169 -0.10722 7090 ft 275 kts 271°
2026-05-07 21:09 51.35215 -0.13787 7094 ft 276 kts 271°
2026-05-07 21:09 51.35260 -0.16857 7099 ft 276 kts 271°
2026-05-07 21:09 51.35305 -0.19918 7100 ft 276 kts 271°
2026-05-07 21:09 51.35350 -0.22989 7100 ft 276 kts 271°
2026-05-07 21:10 51.35395 -0.26054 7094 ft 276 kts 271°
2026-05-07 21:10 51.35439 -0.29122 7091 ft 276 kts 271°
2026-05-07 21:10 51.35482 -0.32142 7094 ft 276 kts 271°
2026-05-07 21:10 51.35526 -0.35215 7094 ft 276 kts 271°
2026-05-07 21:11 51.35570 -0.38279 7094 ft 276 kts 271°
2026-05-07 21:11 51.35614 -0.41344 7094 ft 276 kts 271°
2026-05-07 21:11 51.35699 -0.47478 7085 ft 275 kts 271°
2026-05-07 21:12 51.35739 -0.50451 7074 ft 259 kts 271°
2026-05-07 21:12 51.35774 -0.53062 7064 ft 244 kts 271°
2026-05-07 21:12 51.35813 -0.55831 7066 ft 241 kts 271°
2026-05-07 21:12 51.35850 -0.58516 7072 ft 241 kts 271°
2026-05-07 21:13 51.35887 -0.61157 6840 ft 236 kts 271°
2026-05-07 21:13 51.35923 -0.63782 6473 ft 237 kts 271°
2026-05-07 21:13 51.35970 -0.66415 6116 ft 236 kts 275°
2026-05-07 21:13 51.36369 -0.68597 5793 ft 237 kts 296°
2026-05-07 21:14 51.37176 -0.70892 5458 ft 236 kts 300°
2026-05-07 21:14 51.38011 -0.73108 5134 ft 235 kts 301°
2026-05-07 21:14 51.38917 -0.75282 4790 ft 235 kts 314°
2026-05-07 21:14 51.40280 -0.76673 4430 ft 234 kts 343°
2026-05-07 21:15 51.41884 -0.76991 4100 ft 233 kts 359°
2026-05-07 21:15 51.43477 -0.76994 3911 ft 223 kts
2026-05-07 21:15 51.44993 -0.76916 3713 ft 213 kts 12°
2026-05-07 21:15 51.46275 -0.75877 3471 ft 208 kts 45°
2026-05-07 21:16 51.47150 -0.74057 3210 ft 206 kts 64°
2026-05-07 21:16 51.47611 -0.71899 2932 ft 204 kts 81°
2026-05-07 21:16 51.47747 -0.69633 2668 ft 203 kts 92°
2026-05-07 21:16 51.47689 -0.67392 2398 ft 201 kts 89°
2026-05-07 21:17 51.47691 -0.65169 2131 ft 193 kts 90°
2026-05-07 21:17 51.47699 -0.63112 1926 ft 178 kts 90°
2026-05-07 21:17 51.47707 -0.61180 1672 ft 169 kts 90°
2026-05-07 21:17 51.47714 -0.59347 1451 ft 158 kts 90°
2026-05-07 21:18 51.47720 -0.57644 1226 ft 146 kts 90°
2026-05-07 21:18 51.47725 -0.56034 1021 ft 144 kts 90°
2026-05-07 21:18 51.47731 -0.54430 832 ft 144 kts 90°
2026-05-07 21:18 51.47737 -0.52831 654 ft 143 kts 90°
2026-05-07 21:19 51.47739 -0.51236 467 ft 143 kts 90°
2026-05-07 21:19 51.47747 -0.49653 269 ft 141 kts 90°
2026-05-07 21:19 51.47750 -0.48077 99 ft 139 kts 91°
2026-05-07 21:19 51.47757 -0.46681 96 ft 108 kts 89°
2026-05-07 21:20 51.47759 -0.45923 91 ft 50 kts 90°
2026-05-07 21:20 51.47755 -0.45509 92 ft 18 kts 125°
2026-05-07 21:20 51.47647 -0.45468 91 ft 15 kts 180°
2026-05-07 21:20 51.47597 -0.45569 94 ft 13 kts 269°
2026-05-07 21:21 51.47596 -0.45699 95 ft 11 kts 269°
2026-05-07 21:21 51.47595 -0.45810 93 ft 10 kts 270°
2026-05-07 21:21 51.47595 -0.45935 95 ft 13 kts 270°
2026-05-07 21:21 51.47595 -0.46087 95 ft 15 kts 270°
2026-05-07 21:22 51.47594 -0.46263 92 ft 17 kts 269°
2026-05-07 21:22 51.47593 -0.46462 93 ft 19 kts 269°
2026-05-07 21:22 51.47592 -0.46682 93 ft 21 kts 269°
2026-05-07 21:22 51.47582 -0.46920 95 ft 22 kts 270°
2026-05-07 21:23 51.47582 -0.47178 92 ft 24 kts 269°
2026-05-07 21:23 51.47581 -0.47453 93 ft 25 kts 270°
2026-05-07 21:23 51.47580 -0.47739 95 ft 26 kts 270°
2026-05-07 21:23 51.47580 -0.48036 95 ft 27 kts 270°
2026-05-07 21:24 51.47578 -0.48340 93 ft 27 kts 269°
2026-05-07 21:24 51.47564 -0.48461 92 ft 9 kts 216°
2026-05-07 21:24 51.47497 -0.48476 92 ft 11 kts 180°
2026-05-07 21:24 51.47420 -0.48475 91 ft 12 kts 179°
2026-05-07 21:25 51.47334 -0.48474 91 ft 13 kts 179°
2026-05-07 21:25 51.47242 -0.48473 91 ft 14 kts 180°
2026-05-07 21:25 51.47156 -0.48472 93 ft 5 kts 180°
2026-05-07 21:25 51.47134 -0.48518 94 ft 7 kts 268°
2026-05-07 21:26 51.47134 -0.48593 95 ft 5 kts 270°
2026-05-07 21:26 51.47134 -0.48604 91 ft 0 kts 269°